Simultaneous Nadir Overpasses (SNOs) Predictions

Prediction of SNOs between NOAA-15 and METOP-C Satellite Orbit:

Table of predicted SNOs for the next 14.0 days since TLE Epoch: 5/28/2022
Index Date (NOAA-15) Time (NOAA-15) Lat,Lon (NOAA-15) SZA (NOAA-15 ) Date (METOP-C) Time (METOP-C) Lat,Lon (METOP-C) SZA (METOP-C ) Distance(km) Time Diff (sec)
1 06/10/2022 15:09:17 81.06, -9.04 60.05 06/10/2022 15:08:03 81.07, -9.04 60.02 1.09 74
2 06/10/2022 15:59:51 -81.06, 158.35 119.96 06/10/2022 15:58:45 -81.07, 158.20 120.00 2.70 66
3 06/10/2022 16:50:19 81.06, -34.37 60.04 06/10/2022 16:49:24 81.08, -34.20 60.04 3.34 55
4 06/10/2022 17:40:53 -81.06, 133.01 119.97 06/10/2022 17:40:06 -81.07, 133.04 119.98 1.31 47
5 06/10/2022 18:31:21 81.07, -59.70 60.03 06/10/2022 18:30:46 81.07, -59.73 60.01 0.57 35
6 06/10/2022 19:21:55 -81.06, 107.68 119.98 06/10/2022 19:21:28 -81.07, 107.51 120.01 2.86 27
7 06/10/2022 20:12:23 81.07, -85.03 60.02 06/10/2022 20:12:07 81.08, -84.88 60.03 2.66 16
8 06/10/2022 21:02:57 -81.07, 82.34 119.99 06/10/2022 21:02:49 -81.07, 82.35 119.99 0.50 8
9 06/10/2022 21:53:24 81.07,-110.36 60.01 06/10/2022 21:53:28 81.07,-110.41 60.00 0.98 4
10 06/10/2022 22:43:58 -81.07, 57.01 120.00 06/10/2022 22:44:10 -81.06, 56.83 120.02 3.22 12
11 06/10/2022 23:34:26 81.08,-135.69 60.00 06/10/2022 23:34:49 81.08,-135.57 60.02 2.11 23
12 06/11/2022 00:25:00 -81.07, 31.67 120.01 06/11/2022 00:25:31 -81.07, 31.67 120.00 0.31 31
13 06/11/2022 01:15:28 81.08,-161.03 59.99 06/11/2022 01:16:11 81.07,-161.10 59.99 1.75 43
14 06/11/2022 02:06:02 -81.08, 6.34 120.02 06/11/2022 02:06:52 -81.08, 6.51 119.98 2.99 50
15 06/11/2022 02:56:30 81.08, 173.64 59.98 06/11/2022 02:57:32 81.08, 173.74 60.01 1.83 62



Historial Predications of SNOs between NOAA-15 and METOP-C
